EW3511 Weather Reports


time (UTC)temp
C
wind
direction
speed
KPH
gust
KPH
rain 1hr
cm
rain 24hr
cm
rain mn
cm
humidity
%
barometer
mb
20260510171102 20 59 1.6 4.8 0.00 0.00 0.00 55 1004.8
20260510170122 20 42 3.2 9.7 0.00 0.00 0.00 53 1004.9
20260510165102 21 50 3.2 8.0 0.00 0.00 0.00 52 1004.9
20260510164102 21 44 3.2 11.3 0.00 0.00 0.00 52 1005.1
20260510163123 22 38 4.8 9.7 0.00 0.00 0.00 51 1005.1
20260510162115 22 56 4.8 9.7 0.00 0.00 0.00 50 1005.2
20260510161124 22 56 4.8 12.9 0.00 0.00 0.00 50 1005.3
20260510160106 22 55 4.8 11.3 0.00 0.00 0.00 50 1005.4
20260510155108 22 50 3.2 8.0 0.00 0.00 0.00 52 1005.5
20260510154033 22 40 4.8 9.7 0.00 0.00 0.00 52 1005.7
20260510153033 22 62 3.2 11.3 0.00 0.00 0.00 51 1005.8
20260510152034 22 49 4.8 9.7 0.00 0.00 0.00 50 1005.9
20260510151035 22 43 6.4 11.3 0.00 0.00 0.00 50 1006.0
20260510150035 23 60 3.2 9.7 0.00 0.00 0.00 50 1006.0
20260510145036 23 55 4.8 11.3 0.00 0.00 0.00 49 1006.1
20260510144036 23 57 4.8 12.9 0.00 0.00 0.00 49 1006.2
20260510143056 23 45 3.2 11.3 0.00 0.00 0.00 49 1006.2
20260510142036 23 62 4.8 12.9 0.00 0.00 0.00 49 1006.3
20260510141036 23 85 4.8 9.7 0.00 0.00 0.00 49 1006.4
20260510140037 23 26 4.8 14.5 0.00 0.00 0.00 50 1006.6
20260510135038 22 52 4.8 12.9 0.00 0.00 0.00 51 1006.8
20260510134038 23 66 3.2 11.3 0.00 0.00 0.00 50 1007.0
20260510133040 22 110 4.8 12.9 0.00 0.00 0.00 52 1006.9
20260510132038 22 66 3.2 9.7 0.00 0.00 0.00 53 1007.2
20260510131042 23 51 4.8 11.3 0.00 0.00 0.00 51 1007.2
20260509192555 15 59 0.0 1.6 0.00 0.00 0.00 66 1014.3
20260509191556 15 73 0.0 1.6 0.00 0.00 0.00 65 1014.3
20260509190557 15 0.0 1.6 0.00 0.00 0.00 64 1014.2
20260509185558 16 62 1.6 3.2 0.00 0.00 0.00 61 1014.1
20260509184557 17 74 1.6 8.0 0.00 0.00 0.00 58 1014.2
20260509183557 17 76 0.0 4.8 0.00 0.00 0.00 58 1013.9
20260509182558 17 71 1.6 4.8 0.00 0.00 0.00 58 1013.9
20260509181558 17 62 1.6 8.0 0.00 0.00 0.00 57 1013.9
20260509180559 18 73 3.2 11.3 0.00 0.00 0.00 55 1013.8
20260509175559 18 72 1.6 8.0 0.00 0.00 0.00 55 1013.8
20260509174600 18 62 3.2 11.3 0.00 0.00 0.00 54 1013.8
20260509173600 19 91 3.2 11.3 0.00 0.00 0.00 54 1013.8
20260509172600 19 70 1.6 9.7 0.00 0.00 0.00 53 1013.9
20260509171601 19 70 4.8 11.3 0.00 0.00 0.00 53 1013.7